DW8295 Weather Reports


Display with metric or nautical units.
time (UTC)temp
F
wind
direction
speed
MPH
gust
MPH
rain 1hr
in
rain 24hr
in
rain mn
in
humidity
%
barometer
mb
20260505073405 50 205 3.0 11.0 0.00 0.00 0.00 84 1008.2
20260505072905 50 200 3.0 9.0 0.00 0.00 0.00 83 1008.1
20260505072405 51 227 2.0 9.0 0.00 0.00 0.00 83 1008.1
20260505071905 51 215 2.0 7.0 0.00 0.00 0.00 83 1008.1
20260505071405 51 273 2.0 10.0 0.00 0.00 0.00 82 1008.1
20260505071345 51 221 3.0 11.0 0.00 0.00 0.00 82 1008.1
20260505070405 51 213 3.0 11.0 0.00 0.00 0.00 82 1008.0
20260505070127 51 229 3.0 11.0 0.00 0.00 0.00 82 1008.0
20260505065404 51 244 4.0 11.0 0.00 0.00 0.00 82 1008.0
20260505064905 51 212 4.0 10.0 0.00 0.00 0.00 81 1008.0
20260505064404 51 245 3.0 10.0 0.00 0.00 0.00 82 1008.0
20260505064127 51 223 3.0 11.0 0.00 0.00 0.00 81 1007.9
20260505063405 51 228 3.0 11.0 0.00 0.00 0.00 81 1007.9
20260505062906 51 213 4.0 11.0 0.00 0.00 0.00 80 1007.9
20260505062401 51 208 4.0 13.0 0.00 0.00 0.00 80 1007.9
20260505061855 52 192 4.0 13.0 0.00 0.00 0.00 79 1007.9
20260505061347 52 184 4.0 12.0 0.00 0.00 0.00 79 1007.9
20260505061108 52 230 4.0 12.0 0.00 0.00 0.00 79 1007.9
20260505060334 52 227 4.0 11.0 0.00 0.00 0.00 79 1008.0
20260505055828 52 189 3.0 9.0 0.00 0.00 0.00 79 1008.0
20260505055321 52 223 3.0 8.0 0.00 0.00 0.00 79 1007.9
20260505054815 52 199 3.0 9.0 0.00 0.00 0.00 79 1007.9
20260505054309 52 209 2.0 9.0 0.00 0.00 0.00 79 1008.0
20260505054028 52 243 3.0 11.0 0.00 0.00 0.00 78 1008.0
20260505053259 53 205 2.0 11.0 0.00 0.00 0.00 77 1008.0
20260505052751 53 195 2.0 8.0 0.00 0.00 0.00 76 1008.0
20260505052245 53 170 3.0 10.0 0.00 0.00 0.00 76 1008.0
20260505051739 53 234 3.0 10.0 0.00 0.00 0.00 76 1008.0
20260505051233 53 201 3.0 7.0 0.00 0.00 0.00 76 1007.9
20260505050727 53 195 4.0 11.0 0.00 0.00 0.00 75 1008.0
20260505050226 54 188 4.0 11.0 0.00 0.00 0.00 73 1007.9
20260505041628 54 204 3.0 8.0 0.00 0.00 0.00 73 1007.5
20260505041120 54 238 2.0 8.0 0.00 0.00 0.00 75 1007.5
20260505040842 53 198 3.0 8.0 0.00 0.00 0.00 76 1007.5
20260505040111 54 167 3.0 8.0 0.00 0.00 0.00 75 1007.5
20260505035611 54 204 2.0 9.0 0.00 0.00 0.00 75 1007.4
20260505035113 54 194 2.0 9.0 0.00 0.00 0.00 74 1007.4
20260505034610 55 183 2.0 6.0 0.00 0.00 0.00 73 1007.4
20260505034110 55 182 3.0 10.0 0.00 0.00 0.00 72 1007.4
20260505033612 55 209 4.0 15.0 0.00 0.00 0.00 71 1007.3
20260505033111 56 198 3.0 15.0 0.00 0.00 0.00 69 1007.4
20260505032612 57 226 2.0 7.0 0.00 0.00 0.00 68 1007.2
20260505032112 57 239 3.0 10.0 0.00 0.00 0.00 67 1007.2
20260505031611 58 238 3.0 14.0 0.00 0.00 0.00 65 1007.1
20260505031111 58 215 4.0 14.0 0.00 0.00 0.00 65 1007.2
20260505030831 58 221 5.0 12.0 0.00 0.00 0.00 65 1007.2
20260505030109 58 252 6.0 13.0 0.00 0.00 0.00 66 1007.2
20260505025832 57 257 5.0 13.0 0.00 0.00 0.00 66 1007.3
20260505025110 57 239 4.0 15.0 0.00 0.00 0.00 67 1007.4
20260505024608 57 246 5.0 15.0 0.00 0.00 0.00 68 1007.3
20260505024108 57 223 6.0 16.0 0.00 0.00 0.00 68 1007.3
20260505023824 56 250 6.0 17.0 0.00 0.00 0.00 69 1007.3
20260505023104 56 238 6.0 20.0 0.00 0.00 0.00 71 1007.2
20260505022831 55 254 7.0 20.0 0.00 0.00 0.00 73 1007.1
20260505022105 55 218 6.0 17.0 0.00 0.00 0.00 74 1007.1
20260505021605 54 188 6.0 17.0 0.00 0.00 0.00 74 1007.0
20260505021105 54 252 6.0 16.0 0.00 0.00 0.00 75 1006.9
20260505020829 54 191 6.0 17.0 0.00 0.00 0.00 75 1006.9
20260505020104 54 232 6.0 17.0 0.00 0.00 0.00 75 1006.9
20260505015604 54 219 5.0 17.0 0.00 0.00 0.00 76 1006.9
20260505015104 53 217 5.0 14.0 0.00 0.00 0.00 77 1006.8
20260505014604 53 217 5.0 16.0 0.00 0.00 0.00 77 1006.8
20260505014323 53 217 5.0 16.0 0.00 0.00 0.00 77 1006.8
20260505013602 53 248 5.0 15.0 0.00 0.00 0.00 77 1006.8
20260505013329 53 198 3.0 11.0 0.00 0.00 0.00 77 1006.7
20260505012824 53 209 3.0 12.0 0.00 0.00 0.00 77 1006.6
20260505012534 53 176 4.0 12.0 0.00 0.00 0.00 77 1006.5
20260505011558 53 194 4.0 12.0 0.00 0.00 0.00 77 1006.5
20260505011058 53 196 3.0 13.0 0.00 0.00 0.00 77 1006.4
20260505010554 53 196 2.0 13.0 0.00 0.00 0.00 77 1006.4
20260505010046 53 163 1.0 9.0 0.00 0.00 0.00 78 1006.3
20260505005805 53 161 1.0 7.0 0.00 0.00 0.00 77 1006.2
20260505005034 52 175 2.0 7.0 0.00 0.00 0.00 78 1006.1
20260505004528 52 194 3.0 11.0 0.00 0.00 0.00 78 1006.0
20260505004034 52 155 3.0 11.0 0.00 0.00 0.00 78 1006.0
20260505003520 52 174 2.0 7.0 0.00 0.00 0.00 78 1005.9
20260505003022 52 180 2.0 7.0 0.00 0.00 0.00 77 1005.8
20260505002746 52 176 2.0 7.0 0.00 0.00 0.00 77 1005.8
20260505002030 52 184 1.0 6.0 0.00 0.00 0.00 78 1005.7
20260505001518 52 184 1.0 5.0 0.00 0.00 0.00 78 1005.6
20260505001031 52 184 3.0 8.0 0.00 0.00 0.00 78 1005.5
20260505000519 52 197 4.0 8.0 0.00 0.00 0.00 77 1005.4
20260505000036 52 179 3.0 8.0 0.00 0.00 0.00 77 1005.4
20260504235736 53 192 4.0 8.0 0.00 0.00 0.00 76 1005.4
20260504235023 53 184 4.0 10.0 0.00 0.00 0.00 75 1005.3
20260504234518 53 161 3.0 10.0 0.00 0.00 0.00 74 1005.3
20260504234036 54 180 3.0 8.0 0.00 0.00 0.00 73 1005.1
20260504233738 54 177 3.0 8.0 0.00 0.00 0.00 72 1005.1
20260504233025 55 177 3.0 7.0 0.00 0.00 0.00 71 1005.0
20260504232518 55 166 3.0 8.0 0.00 0.00 0.00 69 1004.9
20260504232024 56 182 4.0 11.0 0.00 0.00 0.00 68 1004.8
20260504231518 57 169 2.0 11.0 0.00 0.00 0.00 65 1004.7
20260504231022 58 143 1.0 6.0 0.00 0.00 0.00 64 1004.6
20260504230517 58 161 1.0 6.0 0.00 0.00 0.00 63 1004.5
20260504230258 58 159 1.0 6.0 0.00 0.00 0.00 63 1004.5
20260504225516 59 159 1.0 5.0 0.00 0.00 0.00 61 1004.4
20260504225026 59 164 0.0 5.0 0.00 0.00 0.00 59 1004.5
20260504224516 60 163 1.0 5.0 0.00 0.00 0.00 57 1004.4
20260504224024 62 165 2.0 5.0 0.00 0.00 0.00 54 1004.3
20260504223512 65 163 1.0 6.0 0.00 0.00 0.00 49 1004.2
20260504223235 68 153 1.0 7.0 0.00 0.00 0.00 44 1004.1
20260504223002 71 174 3.0 8.0 0.00 0.00 0.00 40 1004.1
20260504222012 71 257 3.0 13.0 0.00 0.00 0.00 34 1004.0
20260504221512 72 227 4.0 19.0 0.00 0.00 0.00 33 1004.0
20260504221012 73 272 5.0 19.0 0.00 0.00 0.00 32 1004.0
20260504220512 73 239 4.0 14.0 0.00 0.00 0.00 32 1004.0
20260504220011 73 274 4.0 11.0 0.00 0.00 0.00 32 1004.0
20260504215513 73 242 5.0 14.0 0.00 0.00 0.00 33 1003.9
20260504215008 73 229 4.0 14.0 0.00 0.00 0.00 33 1004.0
20260504214508 73 256 3.0 10.0 0.00 0.00 0.00 35 1004.0
20260504214008 73 248 5.0 11.0 0.00 0.00 0.00 33 1004.0
20260504213508 73 273 5.0 13.0 0.00 0.00 0.00 33 1004.0
20260504213008 73 230 6.0 16.0 0.00 0.00 0.00 32 1004.0
20260504212508 73 260 5.0 16.0 0.00 0.00 0.00 32 1004.0
20260504212008 73 273 4.0 14.0 0.00 0.00 0.00 32 1004.0
20260504211508 73 232 5.0 16.0 0.00 0.00 0.00 33 1004.0
20260504211008 73 262 5.0 16.0 0.00 0.00 0.00 33 1004.0
20260504210504 72 238 4.0 10.0 0.00 0.00 0.00 33 1004.0
20260504210004 72 274 4.0 10.0 0.00 0.00 0.00 33 1004.0
20260504205504 72 241 4.0 14.0 0.00 0.00 0.00 34 1003.9
20260504205006 72 255 6.0 15.0 0.00 0.00 0.00 33 1003.9
20260504204505 73 273 7.0 15.0 0.00 0.00 0.00 33 1004.0
20260504204004 73 235 6.0 15.0 0.00 0.00 0.00 34 1004.0
20260504203505 73 327 7.0 19.0 0.00 0.00 0.00 33 1003.9
20260504203004 72 236 7.0 19.0 0.00 0.00 0.00 34 1003.9
20260504202505 72 261 7.0 17.0 0.00 0.00 0.00 34 1004.0
20260504202000 72 277 6.0 15.0 0.00 0.00 0.00 34 1004.0
20260504201500 72 282 6.0 15.0 0.00 0.00 0.00 34 1004.1
20260504201000 72 281 6.0 17.0 0.00 0.00 0.00 33 1004.1
20260504200500 72 259 5.0 17.0 0.00 0.00 0.00 34 1004.1
20260504195958 72 288 5.0 14.0 0.00 0.00 0.00 35 1004.1
20260504195456 73 251 4.0 14.0 0.00 0.00 0.00 34 1004.0
20260504194957 73 292 5.0 12.0 0.00 0.00 0.00 34 1004.0
20260504194454 73 296 4.0 12.0 0.00 0.00 0.00 33 1004.1
20260504193955 72 249 3.0 10.0 0.00 0.00 0.00 37 1004.1
20260504193455 71 263 3.0 10.0 0.00 0.00 0.00 36 1004.1
20260504193216 71 247 2.0 8.0 0.00 0.00 0.00 38 1004.1
20260504192452 69 254 1.0 6.0 0.00 0.00 0.00 38 1004.2
20260504191950 69 254 2.0 8.0 0.00 0.00 0.00 39 1004.3
20260504191719 68 261 2.0 8.0 0.00 0.00 0.00 39 1004.3
20260504191207 68 274 4.0 11.0 0.00 0.00 0.00 38 1004.4
20260504190438 68 277 4.0 12.0 0.00 0.00 0.00 38 1004.5
20260504190202 68 248 3.0 12.0 0.00 0.00 0.00 37 1004.5
20260504185437 67 307 4.0 16.0 0.00 0.00 0.00 38 1004.5
20260504184934 68 263 6.0 16.0 0.00 0.00 0.00 37 1004.5
20260504184659 68 219 5.0 17.0 0.00 0.00 0.00 36 1004.5
20260504184201 68 215 5.0 17.0 0.00 0.00 0.00 36 1004.5
20260504183434 69 269 6.0 17.0 0.00 0.00 0.00 35 1004.5
20260504182935 69 246 6.0 15.0 0.00 0.00 0.00 35 1004.3
20260504182434 69 264 7.0 14.0 0.00 0.00 0.00 34 1004.3
20260504181934 69 254 7.0 15.0 0.00 0.00 0.00 35 1004.3
20260504181436 69 278 8.0 15.0 0.00 0.00 0.00 35 1004.3
20260504180947 69 336 7.0 18.0 0.00 0.00 0.00 35 1004.4
20260504180433 69 234 6.0 18.0 0.00 0.00 0.00 35 1004.3
20260504175934 69 279 6.0 16.0 0.00 0.00 0.00 35 1004.3
20260504175434 69 261 7.0 21.0 0.00 0.00 0.00 36 1004.3
20260504174930 68 260 7.0 21.0 0.00 0.00 0.00 36 1004.2
20260504174431 68 240 5.0 13.0 0.00 0.00 0.00 38 1004.2
20260504173930 67 231 4.0 9.0 0.00 0.00 0.00 45 1004.2
20260504173431 66 213 5.0 12.0 0.00 0.00 0.00 46 1004.3
20260504172925 66 252 6.0 13.0 0.00 0.00 0.00 47 1004.3
20260504172424 65 230 6.0 14.0 0.00 0.00 0.00 50 1004.3
20260504171924 64 169 5.0 14.0 0.00 0.00 0.00 48 1004.4
20260504171424 63 238 5.0 15.0 0.00 0.00 0.00 51 1004.3
20260504170924 62 244 7.0 21.0 0.00 0.00 0.00 51 1004.4
20260504170424 61 201 7.0 22.0 0.00 0.00 0.00 53 1004.5
20260504170147 63 184 6.0 22.0 0.00 0.00 0.00 51 1004.5
20260504160417 61 165 6.0 12.0 0.00 0.00 0.00 59 1005.1
20260504150305 59 185 5.0 11.0 0.00 0.00 0.00 59 1005.9
20260504140659 57 185 4.0 13.0 0.00 0.00 0.00 57 1006.9
20260504140155 58 186 4.0 10.0 0.00 0.00 0.00 57 1006.9
20260504130549 55 226 7.0 14.0 0.00 0.00 0.00 57 1007.3
20260504120225 52 251 4.0 13.0 0.00 0.00 0.00 62 1008.1
20260504110452 48 245 4.0 10.0 0.00 0.00 0.00 63 1008.0
20260504100341 45 254 0.0 5.0 0.00 0.00 0.00 66 1008.0
20260504081305 42 286 0.0 3.0 0.00 0.00 0.00 65 1007.8
20260504080812 42 286 1.0 6.0 0.00 0.00 0.00 66 1007.8
20260504080253 42 287 1.0 6.0 0.00 0.00 0.00 66 1007.7